Location: Les Gen�tes
(46.3104°N, 1.5969°E)
Time: 02:41:10
(UTC+00:00)

Resurs 01 Rocket - Pass Details

Date: 01 June 2020
Orbit: 633 x 645 km, 98.0° (Epoch: 05 July)

Event Time Altitude Azimuth Distance (km) Brightness Sun altitude
Exits shadow 20:28:14 - 170° (S) 2,619 4.3 -7.5°
Reaches altitude 10° 20:29:39 10° 172° (S) 2,038 3.7 -7.7°
Maximum altitude 20:34:05 73° 257° (WSW) 677 1.9 -8.2°
Drops below altitude 10° 20:38:34 10° 343° (NNW) 2,051 5.3 -8.8°
Sets 20:40:47 0° 345° (NNW) 2,964 6.2 -9.0°
